SAS353 EDDC-ESPA

Flight info

Callsign SAS353
Flight time 2h 20m
Altitude 38000
Route BEBEX7E BEBEX DCT HOZ DCT BALOX M736 SIMEG/N0426F280 M736 NEXIL/N0434F290 N851 ROXEN/N0420F270 N851 BEDOS/N0449F390 N851 TRS/N0419F270 M607 SOPLI DCT TURAS DCT TIMOB
Aircraft A20N/M-SDE2E3FGHIRWXY/LB1

Departure

Time 2026-05-07 18:16
Airport Dresden Airport (EDDC)

Arrival

Time 2026-05-07 20:37
Airport Luleå Airport (ESPA)
Time Latitude Longitude Altitude Speed Heading
2026-05-07 17:42 51.12567 13.76669 755 ft 0 kts 221°
2026-05-07 18:00 51.12570 13.76674 752 ft 0 kts 221°
2026-05-07 18:01 51.12575 13.76681 752 ft 1 kts 221°
2026-05-07 18:01 51.12581 13.76690 753 ft 1 kts 221°
2026-05-07 18:01 51.12587 13.76698 750 ft 1 kts 224°
2026-05-07 18:01 51.12592 13.76706 754 ft 1 kts 225°
2026-05-07 18:02 51.12601 13.76725 749 ft 1 kts 258°
2026-05-07 18:02 51.12602 13.76738 749 ft 1 kts 288°
2026-05-07 18:02 51.12600 13.76747 749 ft 0 kts 316°
2026-05-07 18:04 51.12601 13.76746 749 ft 1 kts 315°
2026-05-07 18:05 51.12628 13.76701 750 ft 9 kts 312°
2026-05-07 18:05 51.12680 13.76606 751 ft 13 kts 310°
2026-05-07 18:05 51.12710 13.76550 747 ft 0 kts 310°
2026-05-07 18:05 51.12715 13.76541 751 ft 4 kts 310°
2026-05-07 18:06 51.12749 13.76479 750 ft 10 kts 311°
2026-05-07 18:06 51.12769 13.76366 746 ft 13 kts 238°
2026-05-07 18:06 51.12695 13.76259 746 ft 15 kts 219°
2026-05-07 18:06 51.12628 13.76169 752 ft 0 kts 220°
2026-05-07 18:07 51.12622 13.76161 749 ft 5 kts 220°
2026-05-07 18:07 51.12565 13.76083 754 ft 15 kts 220°
2026-05-07 18:07 51.12470 13.75953 758 ft 20 kts 220°
2026-05-07 18:07 51.12376 13.75807 761 ft 10 kts 243°
2026-05-07 18:08 51.12381 13.75721 762 ft 9 kts 291°
2026-05-07 18:08 51.12391 13.75679 761 ft 0 kts 292°
2026-05-07 18:14 51.12393 13.75674 761 ft 2 kts 292°
2026-05-07 18:15 51.12413 13.75606 762 ft 11 kts 299°
2026-05-07 18:15 51.12478 13.75515 765 ft 14 kts 350°
2026-05-07 18:15 51.12591 13.75647 762 ft 41 kts 40°
2026-05-07 18:15 51.12994 13.76184 747 ft 108 kts 41°
2026-05-07 18:16 51.13710 13.77178 731 ft 159 kts 40°
2026-05-07 18:16 51.14595 13.78403 962 ft 180 kts 40°
2026-05-07 18:16 51.15578 13.79781 1623 ft 184 kts 40°
2026-05-07 18:16 51.16477 13.81064 2596 ft 170 kts 41°
2026-05-07 18:17 51.17390 13.82356 3085 ft 185 kts 40°
2026-05-07 18:17 51.18418 13.83781 3478 ft 207 kts 39°
2026-05-07 18:17 51.19805 13.84823 3890 ft 232 kts
2026-05-07 18:17 51.21462 13.84733 4466 ft 252 kts 353°
2026-05-07 18:18 51.23247 13.84402 5304 ft 262 kts 352°
2026-05-07 18:18 51.25074 13.84052 6246 ft 269 kts 352°
2026-05-07 18:18 51.26959 13.83703 6777 ft 275 kts 352°
2026-05-07 18:18 51.28855 13.83328 6972 ft 275 kts 346°
2026-05-07 18:19 51.30576 13.82082 7056 ft 273 kts 320°
2026-05-07 18:19 51.31754 13.79756 7055 ft 271 kts 294°
2026-05-07 18:19 51.32179 13.76848 7061 ft 270 kts 275°
2026-05-07 18:19 51.32342 13.73859 7051 ft 270 kts 274°
2026-05-07 18:20 51.32503 13.70867 7053 ft 270 kts 274°
2026-05-07 18:20 51.32668 13.67876 7053 ft 270 kts 275°
2026-05-07 18:20 51.32838 13.64874 7160 ft 273 kts 275°
2026-05-07 18:20 51.33013 13.61833 7755 ft 276 kts 274°
2026-05-07 18:21 51.33189 13.58782 8795 ft 276 kts 274°
2026-05-07 18:21 51.33366 13.55701 9762 ft 281 kts 274°
2026-05-07 18:21 51.33547 13.52552 10522 ft 292 kts 275°
2026-05-07 18:21 51.34132 13.49313 10847 ft 318 kts 297°
2026-05-07 18:22 51.35569 13.46493 11230 ft 339 kts 321°
2026-05-07 18:22 51.36911 13.45179 11728 ft 344 kts 336°
2026-05-07 18:22 51.40071 13.44308 12852 ft 352 kts
2026-05-07 18:22 51.42514 13.44793 13658 ft 357 kts
2026-05-07 18:23 51.44987 13.45340 14416 ft 360 kts
2026-05-07 18:23 51.47497 13.45688 15163 ft 364 kts
2026-05-07 18:23 51.50041 13.45848 15765 ft 368 kts
2026-05-07 18:23 51.52608 13.45893 16000 ft 370 kts 360°
2026-05-07 18:24 51.55181 13.45880 16070 ft 369 kts 359°
2026-05-07 18:24 51.57749 13.45849 16075 ft 369 kts 359°
2026-05-07 18:24 51.60315 13.45815 16076 ft 369 kts 359°
2026-05-07 18:24 51.62886 13.45786 16075 ft 369 kts 359°
2026-05-07 18:25 51.65452 13.45760 16075 ft 369 kts 359°
2026-05-07 18:25 51.68019 13.45736 16074 ft 368 kts 359°
2026-05-07 18:25 51.70582 13.45714 16075 ft 368 kts 359°
2026-05-07 18:25 51.73145 13.45691 16075 ft 368 kts 359°
2026-05-07 18:26 51.75703 13.45669 16080 ft 368 kts 359°
2026-05-07 18:26 51.78277 13.45647 16383 ft 372 kts 359°
2026-05-07 18:26 51.80863 13.45626 17235 ft 371 kts 359°
2026-05-07 18:26 51.83460 13.45604 18002 ft 375 kts 359°
2026-05-07 18:27 51.86078 13.45582 18686 ft 378 kts 359°
2026-05-07 18:27 51.88710 13.45559 19391 ft 379 kts 359°
2026-05-07 18:27 51.91352 13.45536 20063 ft 381 kts 359°
2026-05-07 18:27 51.93110 13.45520 20489 ft 383 kts 359°
2026-05-07 18:28 51.96594 13.45489 21327 ft 387 kts 359°
2026-05-07 18:28 51.99259 13.45466 21958 ft 389 kts 359°
2026-05-07 18:28 52.01978 13.45442 22599 ft 392 kts 359°
2026-05-07 18:28 52.04715 13.45419 23229 ft 395 kts 359°
2026-05-07 18:29 52.07471 13.45395 23801 ft 398 kts 359°
2026-05-07 18:29 52.10251 13.45371 24320 ft 401 kts 360°
2026-05-07 18:29 52.13048 13.45347 24823 ft 403 kts 360°
2026-05-07 18:29 52.15862 13.45322 25313 ft 406 kts 360°
2026-05-07 18:30 52.18671 13.45297 25786 ft 409 kts 360°
2026-05-07 18:30 52.21548 13.45271 26253 ft 412 kts 360°
2026-05-07 18:30 52.24426 13.45245 26711 ft 414 kts 360°
2026-05-07 18:30 52.27324 13.45220 27161 ft 417 kts
2026-05-07 18:31 52.30236 13.45195 27590 ft 420 kts
2026-05-07 18:31 52.33168 13.45170 27968 ft 423 kts
2026-05-07 18:31 52.36022 13.45145 28092 ft 424 kts
2026-05-07 18:32 52.41921 13.45095 28106 ft 424 kts
2026-05-07 18:32 52.47820 13.45044 28100 ft 424 kts
2026-05-07 18:33 52.53722 13.44993 28097 ft 424 kts
2026-05-07 18:33 52.59627 13.44942 28094 ft 424 kts
2026-05-07 18:34 52.65527 13.44890 28094 ft 424 kts
2026-05-07 18:34 52.71439 13.44839 28095 ft 425 kts
2026-05-07 18:35 52.77349 13.44787 28774 ft 429 kts
2026-05-07 18:35 52.80339 13.44760 29158 ft 432 kts
2026-05-07 18:35 52.83355 13.44734 29525 ft 434 kts
2026-05-07 18:35 52.86380 13.44707 29895 ft 437 kts
2026-05-07 18:36 52.89431 13.44686 30227 ft 439 kts
2026-05-07 18:36 52.91493 13.44830 30428 ft 440 kts
2026-05-07 18:36 52.94538 13.45476 30727 ft 442 kts
2026-05-07 18:36 52.97534 13.46319 31025 ft 444 kts 10°
2026-05-07 18:37 53.00586 13.47198 31326 ft 447 kts 10°
2026-05-07 18:37 53.03661 13.48091 31637 ft 449 kts 10°
2026-05-07 18:37 53.06742 13.48996 31945 ft 451 kts 10°
2026-05-07 18:37 53.09837 13.49914 32256 ft 453 kts 10°
2026-05-07 18:38 53.12944 13.50841 32574 ft 454 kts 10°
2026-05-07 18:38 53.16060 13.51780 32870 ft 456 kts 10°
2026-05-07 18:38 53.19187 13.52725 33195 ft 457 kts 10°
2026-05-07 18:38 53.22327 13.53681 33538 ft 458 kts 10°
2026-05-07 18:39 53.25462 13.54641 33851 ft 459 kts 10°
2026-05-07 18:39 53.28604 13.55610 34166 ft 459 kts 10°
2026-05-07 18:39 53.31748 13.56582 34453 ft 459 kts 10°
2026-05-07 18:39 53.34890 13.57557 34728 ft 459 kts 10°
2026-05-07 18:40 53.38027 13.58539 35009 ft 459 kts 10°
2026-05-07 18:40 53.41170 13.59527 35262 ft 460 kts 10°
2026-05-07 18:40 53.44314 13.60521 35522 ft 460 kts 10°
2026-05-07 18:40 53.47459 13.61522 35772 ft 460 kts 10°
2026-05-07 18:41 53.50601 13.62525 36022 ft 460 kts 10°
2026-05-07 18:41 53.53745 13.63535 36249 ft 460 kts 10°
2026-05-07 18:41 53.56889 13.64548 36499 ft 460 kts 10°
2026-05-07 18:41 53.60031 13.65565 36731 ft 460 kts 10°
2026-05-07 18:42 53.63178 13.66587 36954 ft 460 kts 10°
2026-05-07 18:42 53.66325 13.67612 37174 ft 460 kts 10°
2026-05-07 18:42 53.69475 13.68573 37386 ft 460 kts
2026-05-07 18:42 53.72668 13.68677 37555 ft 458 kts 353°
2026-05-07 18:43 53.75829 13.67999 37744 ft 458 kts 349°
2026-05-07 18:43 53.78975 13.67145 37940 ft 458 kts 349°
2026-05-07 18:43 53.82127 13.66346 38114 ft 459 kts 351°
2026-05-07 18:44 53.88452 13.64994 38128 ft 457 kts 352°
2026-05-07 18:44 53.94735 13.63797 38127 ft 457 kts 352°
2026-05-07 18:45 54.01060 13.62608 38129 ft 457 kts 352°
2026-05-07 18:45 54.07385 13.61410 38131 ft 457 kts 352°
2026-05-07 18:46 54.13709 13.60207 38136 ft 457 kts 352°
2026-05-07 18:46 54.20037 13.58999 38142 ft 458 kts 352°
2026-05-07 18:47 54.26367 13.57787 38146 ft 458 kts 352°
2026-05-07 18:47 54.32704 13.56570 38140 ft 457 kts 352°
2026-05-07 18:48 54.39007 13.55355 38140 ft 455 kts 352°
2026-05-07 18:48 54.45310 13.54137 38139 ft 455 kts 352°
2026-05-07 18:49 54.51606 13.52917 38146 ft 455 kts 352°
2026-05-07 18:49 54.57902 13.51692 38142 ft 455 kts 352°
2026-05-07 18:50 54.64192 13.50465 38140 ft 454 kts 352°
2026-05-07 18:50 54.70473 13.49259 38141 ft 454 kts 353°
2026-05-07 18:51 54.76756 13.48050 38144 ft 454 kts 353°
2026-05-07 18:51 54.82980 13.46825 38139 ft 453 kts 352°
2026-05-07 18:52 54.89243 13.45582 38140 ft 453 kts 352°
2026-05-07 18:52 54.95509 13.44335 38137 ft 453 kts 352°
2026-05-07 18:53 55.01791 13.43458 38136 ft 454 kts 359°
2026-05-07 18:53 55.08084 13.44383 38142 ft 455 kts
2026-05-07 18:54 55.14305 13.46501 38143 ft 455 kts 10°
2026-05-07 18:54 55.20527 13.48600 38141 ft 455 kts 10°
2026-05-07 18:55 55.26744 13.50742 38141 ft 456 kts 10°
2026-05-07 18:55 55.32967 13.52909 38140 ft 456 kts 10°
2026-05-07 18:56 55.39192 13.55085 38143 ft 456 kts 10°
2026-05-07 18:56 55.45469 13.56531 38138 ft 455 kts
2026-05-07 18:57 55.51764 13.57710 38139 ft 455 kts
2026-05-07 18:57 55.58019 13.58891 38140 ft 455 kts
2026-05-07 18:58 55.64317 13.60069 38145 ft 455 kts
2026-05-07 18:58 55.70609 13.61247 38148 ft 454 kts
2026-05-07 18:59 55.76896 13.62426 38148 ft 454 kts
2026-05-07 18:59 55.83135 13.63602 38149 ft 454 kts
2026-05-07 19:00 55.89411 13.64788 38146 ft 453 kts
2026-05-07 19:00 55.95686 13.65977 38143 ft 453 kts
2026-05-07 19:01 56.01952 13.67169 38145 ft 453 kts
2026-05-07 19:01 56.08212 13.68364 38136 ft 452 kts
2026-05-07 19:02 56.14464 13.69561 38139 ft 452 kts
2026-05-07 19:02 56.20711 13.70762 38144 ft 451 kts
2026-05-07 19:03 56.26958 13.71966 38142 ft 451 kts
2026-05-07 19:03 56.33080 13.74422 38133 ft 453 kts 19°
2026-05-07 19:04 56.38668 13.79669 38129 ft 455 kts 34°
2026-05-07 19:04 56.43769 13.86432 38125 ft 455 kts 35°
2026-05-07 19:05 56.48844 13.93151 38129 ft 455 kts 35°
2026-05-07 19:05 56.53948 13.99964 38131 ft 456 kts 36°
2026-05-07 19:06 56.59045 14.06828 38129 ft 456 kts 36°
2026-05-07 19:06 56.66648 14.17261 38125 ft 457 kts 36°
2026-05-07 19:07 56.71727 14.24251 38128 ft 458 kts 36°
2026-05-07 19:07 56.76810 14.31265 38133 ft 458 kts 36°
2026-05-07 19:08 56.81958 14.38267 38128 ft 466 kts 35°
2026-05-07 19:08 56.87180 14.45345 38130 ft 474 kts 36°
2026-05-07 19:09 56.92486 14.52582 38131 ft 475 kts 36°
2026-05-07 19:09 56.97776 14.59839 38133 ft 475 kts 36°
2026-05-07 19:10 57.03068 14.67127 38114 ft 475 kts 36°
2026-05-07 19:10 57.08351 14.74428 38113 ft 475 kts 36°
2026-05-07 19:11 57.13637 14.81759 38149 ft 477 kts 36°
2026-05-07 19:11 57.16284 14.85440 38327 ft 476 kts 36°
2026-05-07 19:11 57.18902 14.89088 38862 ft 467 kts 36°
2026-05-07 19:12 57.21479 14.92686 39054 ft 463 kts 36°
2026-05-07 19:12 57.24043 14.96272 39127 ft 463 kts 36°
2026-05-07 19:12 57.29171 15.03460 39133 ft 463 kts 36°
2026-05-07 19:13 57.34296 15.10671 39129 ft 463 kts 36°
2026-05-07 19:13 57.39413 15.17909 39133 ft 463 kts 36°
2026-05-07 19:14 57.44522 15.25189 39140 ft 463 kts 36°
2026-05-07 19:14 57.49628 15.32487 39151 ft 463 kts 36°
2026-05-07 19:15 57.54704 15.39768 39147 ft 464 kts 36°
2026-05-07 19:15 57.59815 15.47124 39153 ft 464 kts 36°
2026-05-07 19:16 57.64925 15.54509 39158 ft 464 kts 36°
2026-05-07 19:16 57.70031 15.61916 39161 ft 465 kts 36°
2026-05-07 19:17 57.75133 15.69344 39154 ft 465 kts 36°
2026-05-07 19:17 57.80239 15.76805 39159 ft 465 kts 36°
2026-05-07 19:18 57.85343 15.84291 39164 ft 466 kts 36°
2026-05-07 19:18 57.90443 15.91800 39161 ft 466 kts 36°
2026-05-07 19:19 57.95541 15.99333 39159 ft 466 kts 36°
2026-05-07 19:19 58.00645 16.06902 39161 ft 467 kts 36°
2026-05-07 19:20 58.05744 16.14491 39164 ft 467 kts 36°
2026-05-07 19:20 58.10841 16.22107 39161 ft 467 kts 36°
2026-05-07 19:21 58.15939 16.29752 39159 ft 468 kts 36°
2026-05-07 19:21 58.21033 16.37420 39162 ft 468 kts 36°
2026-05-07 19:22 58.26131 16.45123 39166 ft 468 kts 36°
2026-05-07 19:22 58.31188 16.52796 39160 ft 469 kts 36°
2026-05-07 19:23 58.36287 16.60559 39158 ft 469 kts 36°
2026-05-07 19:23 58.41381 16.68344 39160 ft 470 kts 36°
2026-05-07 19:24 58.46476 16.76160 39162 ft 470 kts 36°
2026-05-07 19:24 58.51572 16.84008 39160 ft 471 kts 36°
2026-05-07 19:25 58.56670 16.91889 39156 ft 471 kts 36°
2026-05-07 19:25 58.61769 16.99804 39158 ft 472 kts 36°
2026-05-07 19:26 58.66005 17.06401 39161 ft 472 kts 36°
2026-05-07 19:26 58.71934 17.15672 39157 ft 473 kts 36°
2026-05-07 19:27 58.76205 17.22376 39161 ft 473 kts 36°
2026-05-07 19:27 58.81308 17.30415 39163 ft 474 kts 36°
2026-05-07 19:28 58.86376 17.38430 39169 ft 475 kts 36°
2026-05-07 19:28 58.91631 17.46088 39165 ft 471 kts 27°
2026-05-07 19:29 58.97558 17.51157 39169 ft 463 kts 12°
2026-05-07 19:29 59.03823 17.53700 39169 ft 459 kts
2026-05-07 19:30 59.10115 17.55953 39170 ft 460 kts
2026-05-07 19:30 59.16413 17.58203 39176 ft 461 kts
2026-05-07 19:31 59.22722 17.60450 39182 ft 461 kts
2026-05-07 19:31 59.29039 17.62704 39187 ft 462 kts
2026-05-07 19:32 59.34166 17.64540 39188 ft 462 kts
2026-05-07 19:32 59.40491 17.66812 39188 ft 462 kts
2026-05-07 19:33 59.46815 17.69094 39187 ft 462 kts
2026-05-07 19:33 59.53142 17.71386 39172 ft 462 kts
2026-05-07 19:34 59.59470 17.73686 39162 ft 462 kts
2026-05-07 19:34 59.65758 17.75980 39161 ft 462 kts
2026-05-07 19:35 59.72083 17.78297 39160 ft 462 kts
2026-05-07 19:35 59.78415 17.80624 39161 ft 462 kts
2026-05-07 19:36 59.84737 17.82958 39159 ft 462 kts
2026-05-07 19:36 59.91060 17.85301 39164 ft 462 kts
2026-05-07 19:37 59.97382 17.87652 39168 ft 462 kts
2026-05-07 19:37 60.03698 17.90010 39170 ft 462 kts
2026-05-07 19:38 60.10016 17.92379 39167 ft 462 kts
2026-05-07 19:38 60.16336 17.94757 39164 ft 462 kts
2026-05-07 19:39 60.22653 17.97144 39163 ft 462 kts
2026-05-07 19:39 60.28975 17.99542 39169 ft 462 kts
2026-05-07 19:40 60.35299 18.01961 39167 ft 463 kts
2026-05-07 19:40 60.41544 18.05543 39162 ft 468 kts 11°
2026-05-07 19:41 60.47772 18.09343 39164 ft 468 kts 11°
2026-05-07 19:41 60.53967 18.13141 39169 ft 468 kts 11°
2026-05-07 19:42 60.60201 18.17010 39174 ft 469 kts 11°
2026-05-07 19:42 60.66445 18.20908 39176 ft 469 kts 12°
2026-05-07 19:43 60.72692 18.24825 39182 ft 470 kts 12°
2026-05-07 19:43 60.78946 18.28761 39185 ft 470 kts 12°
2026-05-07 19:44 60.85200 18.32713 39197 ft 470 kts 12°
2026-05-07 19:44 60.91451 18.36679 39199 ft 470 kts 12°
2026-05-07 19:45 60.97703 18.40662 39196 ft 470 kts 12°
2026-05-07 19:45 61.03951 18.44659 39201 ft 470 kts 12°
2026-05-07 19:46 61.10194 18.48668 39207 ft 470 kts 12°
2026-05-07 19:46 61.16430 18.52687 39205 ft 469 kts 12°
2026-05-07 19:47 61.22659 18.56720 39206 ft 469 kts 12°
2026-05-07 19:47 61.28876 18.60762 39200 ft 468 kts 12°
2026-05-07 19:48 61.35083 18.64813 39197 ft 467 kts 12°
2026-05-07 19:48 61.41284 18.68878 39192 ft 467 kts 12°
2026-05-07 19:49 61.47470 18.72951 39191 ft 466 kts 12°
2026-05-07 19:49 61.53615 18.77013 39184 ft 465 kts 12°
2026-05-07 19:50 61.59786 18.81109 39179 ft 465 kts 12°
2026-05-07 19:50 61.65956 18.85221 39174 ft 465 kts 12°
2026-05-07 19:51 61.72117 18.89346 39176 ft 465 kts 12°
2026-05-07 19:51 61.78278 18.93487 39172 ft 465 kts 13°
2026-05-07 19:52 61.84436 18.97643 39173 ft 465 kts 13°
2026-05-07 19:52 61.90598 19.01824 39167 ft 465 kts 13°
2026-05-07 19:53 61.96764 19.06024 39172 ft 465 kts 13°
2026-05-07 19:53 62.02924 19.10238 39173 ft 465 kts 13°
2026-05-07 19:54 62.09092 19.14475 39176 ft 466 kts 13°
2026-05-07 19:54 62.15266 19.18734 39174 ft 466 kts 13°
2026-05-07 19:55 62.21449 19.23019 39175 ft 467 kts 13°
2026-05-07 19:55 62.27592 19.27294 39177 ft 467 kts 13°
2026-05-07 19:56 62.33781 19.31619 39179 ft 468 kts 13°
2026-05-07 19:56 62.39976 19.35968 39181 ft 468 kts 13°
2026-05-07 19:57 62.46169 19.40334 39180 ft 468 kts 13°
2026-05-07 19:57 62.52369 19.44724 39178 ft 469 kts 13°
2026-05-07 19:58 62.58564 19.49130 39178 ft 469 kts 13°
2026-05-07 19:58 62.64759 19.53556 39176 ft 468 kts 13°
2026-05-07 19:59 62.70954 19.58000 39170 ft 468 kts 13°
2026-05-07 19:59 62.77137 19.62456 39166 ft 468 kts 13°
2026-05-07 20:00 62.83322 19.66939 39164 ft 468 kts 13°
2026-05-07 20:00 62.89501 19.71448 39155 ft 468 kts 13°
2026-05-07 20:01 62.95673 19.75969 39154 ft 468 kts 14°
2026-05-07 20:01 63.01842 19.80507 39157 ft 467 kts 14°
2026-05-07 20:02 63.08007 19.85062 39147 ft 467 kts 14°
2026-05-07 20:02 63.14126 19.89603 39143 ft 467 kts 14°
2026-05-07 20:03 63.20288 19.94197 39139 ft 467 kts 14°
2026-05-07 20:03 63.26451 19.98812 39136 ft 467 kts 14°
2026-05-07 20:04 63.32596 20.03419 38884 ft 464 kts 14°
2026-05-07 20:04 63.35653 20.05715 38384 ft 462 kts 14°
2026-05-07 20:04 63.38691 20.08002 38184 ft 460 kts 14°
2026-05-07 20:05 63.44824 20.12623 38148 ft 469 kts 14°
2026-05-07 20:05 63.50991 20.17304 38146 ft 467 kts 14°
2026-05-07 20:06 63.57152 20.22001 38150 ft 468 kts 14°
2026-05-07 20:06 63.63309 20.26717 38153 ft 467 kts 14°
2026-05-07 20:07 63.69411 20.31412 37975 ft 464 kts 14°
2026-05-07 20:07 63.72495 20.33794 37618 ft 463 kts 14°
2026-05-07 20:07 63.75505 20.36123 37190 ft 462 kts 14°
2026-05-07 20:08 63.78539 20.38476 36637 ft 461 kts 14°
2026-05-07 20:08 63.81569 20.40831 36018 ft 460 kts 14°
2026-05-07 20:08 63.84591 20.43185 35387 ft 459 kts 14°
2026-05-07 20:08 63.87610 20.45532 34768 ft 458 kts 13°
2026-05-07 20:09 63.90672 20.47319 34145 ft 452 kts
2026-05-07 20:09 63.93768 20.48246 33416 ft 446 kts 359°
2026-05-07 20:09 63.96850 20.48641 32703 ft 444 kts 358°
2026-05-07 20:10 64.02997 20.49536 31282 ft 441 kts 358°
2026-05-07 20:10 64.06052 20.49981 30606 ft 439 kts 358°
2026-05-07 20:10 64.09082 20.50414 30003 ft 434 kts 358°
2026-05-07 20:10 64.12073 20.50835 29351 ft 428 kts 358°
2026-05-07 20:11 64.15025 20.51246 28704 ft 423 kts 358°
2026-05-07 20:11 64.17945 20.51652 28075 ft 417 kts 359°
2026-05-07 20:11 64.20827 20.52053 27470 ft 412 kts 359°
2026-05-07 20:11 64.23669 20.52448 26869 ft 407 kts 359°
2026-05-07 20:12 64.26484 20.52841 26286 ft 403 kts 359°
2026-05-07 20:12 64.29264 20.53228 25701 ft 398 kts 359°
2026-05-07 20:12 64.32013 20.53611 25132 ft 394 kts 359°
2026-05-07 20:12 64.34734 20.53991 24576 ft 390 kts 359°
2026-05-07 20:13 64.37430 20.54369 24042 ft 385 kts 360°
2026-05-07 20:13 64.40095 20.54743 23455 ft 382 kts
2026-05-07 20:13 64.42700 20.55109 22768 ft 379 kts
2026-05-07 20:13 64.45320 20.55478 22091 ft 376 kts
2026-05-07 20:14 64.47922 20.55846 21422 ft 373 kts
2026-05-07 20:14 64.50511 20.56212 20791 ft 371 kts
2026-05-07 20:14 64.53079 20.56577 20152 ft 369 kts
2026-05-07 20:14 64.55629 20.56940 19540 ft 366 kts
2026-05-07 20:15 64.58166 20.57302 18949 ft 364 kts
2026-05-07 20:15 64.60687 20.57663 18339 ft 362 kts
2026-05-07 20:15 64.63187 20.58023 17720 ft 358 kts
2026-05-07 20:15 64.65658 20.58557 17115 ft 356 kts
2026-05-07 20:16 64.68061 20.59882 16541 ft 354 kts 16°
2026-05-07 20:16 64.69619 20.61213 16156 ft 352 kts 21°
2026-05-07 20:16 64.71819 20.63504 15603 ft 349 kts 22°
2026-05-07 20:16 64.74034 20.65779 15057 ft 346 kts 21°
2026-05-07 20:17 64.76233 20.68025 14517 ft 343 kts 21°
2026-05-07 20:17 64.78408 20.70255 13990 ft 340 kts 22°
2026-05-07 20:17 64.80564 20.72478 13423 ft 337 kts 22°
2026-05-07 20:17 64.82699 20.74686 12848 ft 334 kts 22°
2026-05-07 20:18 64.84818 20.76885 12295 ft 332 kts 22°
2026-05-07 20:18 64.86923 20.79074 11749 ft 329 kts 22°
2026-05-07 20:18 64.89006 20.81245 11199 ft 327 kts 22°
2026-05-07 20:18 64.91076 20.83404 10671 ft 324 kts 22°
2026-05-07 20:19 64.93126 20.85548 10269 ft 318 kts 22°
2026-05-07 20:19 64.95107 20.87625 10143 ft 304 kts 22°
2026-05-07 20:19 64.96982 20.89596 10118 ft 286 kts 22°
2026-05-07 20:19 64.98757 20.91463 10118 ft 276 kts 22°
2026-05-07 20:20 65.00528 20.93322 10117 ft 280 kts 22°
2026-05-07 20:20 65.02296 20.95181 10026 ft 277 kts 22°
2026-05-07 20:20 65.04050 20.97030 9668 ft 276 kts 22°
2026-05-07 20:20 65.05785 20.98942 9262 ft 275 kts 28°
2026-05-07 20:21 65.07233 21.01885 8838 ft 277 kts 50°
2026-05-07 20:21 65.08186 21.05837 8413 ft 277 kts 62°
2026-05-07 20:21 65.09018 21.09940 8074 ft 273 kts 62°
2026-05-07 20:21 65.09848 21.14010 8010 ft 276 kts 62°
2026-05-07 20:22 65.10688 21.18111 8012 ft 276 kts 62°
2026-05-07 20:22 65.11515 21.22148 8011 ft 276 kts 62°
2026-05-07 20:22 65.12354 21.26245 8010 ft 276 kts 62°
2026-05-07 20:22 65.13192 21.30344 8009 ft 276 kts 62°
2026-05-07 20:23 65.14030 21.34448 8009 ft 276 kts 62°
2026-05-07 20:23 65.14866 21.38551 8009 ft 276 kts 62°
2026-05-07 20:23 65.15701 21.42654 8004 ft 276 kts 62°
2026-05-07 20:23 65.16535 21.46764 8006 ft 276 kts 62°
2026-05-07 20:24 65.17367 21.50874 8007 ft 276 kts 62°
2026-05-07 20:24 65.18197 21.54985 8006 ft 276 kts 62°
2026-05-07 20:24 65.19027 21.59101 8005 ft 276 kts 62°
2026-05-07 20:24 65.19855 21.63221 8006 ft 276 kts 62°
2026-05-07 20:25 65.20683 21.67341 8005 ft 276 kts 62°
2026-05-07 20:25 65.21508 21.71462 8004 ft 275 kts 62°
2026-05-07 20:25 65.22332 21.75582 7961 ft 275 kts 62°
2026-05-07 20:25 65.23156 21.79706 7637 ft 276 kts 62°
2026-05-07 20:26 65.23981 21.83851 7249 ft 276 kts 62°
2026-05-07 20:26 65.24802 21.87979 6858 ft 274 kts 62°
2026-05-07 20:26 65.25611 21.92062 6591 ft 268 kts 63°
2026-05-07 20:26 65.26385 21.95984 6477 ft 255 kts 62°
2026-05-07 20:27 65.27124 21.99732 6370 ft 243 kts 62°
2026-05-07 20:27 65.27827 22.03305 6265 ft 232 kts 62°
2026-05-07 20:27 65.28497 22.06709 6172 ft 220 kts 62°
2026-05-07 20:27 65.29131 22.09935 6068 ft 208 kts 62°
2026-05-07 20:28 65.29722 22.12950 5960 ft 198 kts 62°
2026-05-07 20:28 65.30303 22.15910 5669 ft 198 kts 62°
2026-05-07 20:28 65.30903 22.18951 5148 ft 209 kts 62°
2026-05-07 20:28 65.31549 22.22229 4367 ft 228 kts 62°
2026-05-07 20:29 65.32245 22.25780 3762 ft 236 kts 63°
2026-05-07 20:29 65.32920 22.29257 3644 ft 224 kts 62°
2026-05-07 20:29 65.33699 22.32338 3535 ft 210 kts 50°
2026-05-07 20:29 65.34639 22.34877 3440 ft 198 kts 44°
2026-05-07 20:30 65.35545 22.37195 3408 ft 181 kts 45°
2026-05-07 20:30 65.36366 22.39333 3299 ft 167 kts 45°
2026-05-07 20:30 65.37109 22.41281 3168 ft 150 kts 44°
2026-05-07 20:30 65.37827 22.42958 2915 ft 141 kts 31°
2026-05-07 20:31 65.38694 22.43802 2730 ft 126 kts
2026-05-07 20:31 65.39544 22.43799 2581 ft 127 kts 348°
2026-05-07 20:31 65.40370 22.43063 2450 ft 126 kts 329°
2026-05-07 20:31 65.41042 22.41708 2318 ft 127 kts 316°
2026-05-07 20:32 65.41678 22.40263 2234 ft 127 kts 318°
2026-05-07 20:32 65.42342 22.38914 2089 ft 126 kts 321°
2026-05-07 20:32 65.43013 22.37548 2091 ft 125 kts 319°
2026-05-07 20:32 65.43660 22.36153 2087 ft 126 kts 318°
2026-05-07 20:33 65.44302 22.34721 2087 ft 126 kts 317°
2026-05-07 20:33 65.44943 22.33285 2085 ft 126 kts 317°
2026-05-07 20:33 65.45586 22.31848 2047 ft 127 kts 317°
2026-05-07 20:33 65.46228 22.30409 1909 ft 126 kts 317°
2026-05-07 20:34 65.46869 22.28977 1753 ft 125 kts 317°
2026-05-07 20:34 65.47506 22.27551 1579 ft 125 kts 317°
2026-05-07 20:34 65.48147 22.26118 1411 ft 125 kts 317°
2026-05-07 20:34 65.48786 22.24690 1247 ft 126 kts 317°
2026-05-07 20:35 65.49427 22.23257 1079 ft 126 kts 317°
2026-05-07 20:35 65.50071 22.21819 880 ft 127 kts 317°
2026-05-07 20:35 65.50721 22.20386 709 ft 127 kts 317°
2026-05-07 20:35 65.51362 22.18920 555 ft 127 kts 316°
2026-05-07 20:36 65.52005 22.17436 341 ft 127 kts 316°
2026-05-07 20:36 65.52660 22.16001 219 ft 128 kts 318°
2026-05-07 20:36 65.53321 22.14567 86 ft 128 kts 318°
2026-05-07 20:36 65.53956 22.13166 44 ft 112 kts 315°
2026-05-07 20:37 65.54377 22.12205 51 ft 55 kts 317°
2026-05-07 20:37 65.54561 22.11793 54 ft 31 kts 317°
2026-05-07 20:37 65.54726 22.11483 54 ft 29 kts 336°
2026-05-07 20:37 65.54821 22.11541 59 ft 11 kts 47°
2026-05-07 20:38 65.54866 22.11703 58 ft 12 kts 94°
2026-05-07 20:38 65.54805 22.11867 54 ft 15 kts 135°
2026-05-07 20:38 65.54754 22.12087 53 ft 13 kts 64°
2026-05-07 20:38 65.54809 22.12244 51 ft 6 kts 48°
2026-05-07 20:39 65.54819 22.12269 54 ft 4 kts 47°
2026-05-07 20:39 65.54840 22.12324 56 ft 1 kts 46°
2026-05-07 20:39 65.54844 22.12333 56 ft 0 kts 46°